EW9965 Weather Reports


time (UTC)temp
C
wind
direction
speed
KPH
gust
KPH
rain 1hr
cm
rain 24hr
cm
rain mn
cm
humidity
%
barometer
mb
20260509051537 17 190 0.0 8.0 0.00 0.00 0.00 82 1014.7
20260509050047 17 207 0.0 3.2 0.00 0.00 0.00 81 1014.7
20260509044543 17 212 0.0 3.2 0.00 0.00 0.00 80 1014.6
20260509043033 17 192 0.0 6.4 0.00 0.00 0.00 79 1014.7
20260509041533 18 186 1.6 8.0 0.00 0.00 0.00 78 1014.6
20260509040037 18 188 1.6 8.0 0.00 0.00 0.00 76 1014.4
20260509034534 19 230 1.6 11.3 0.00 0.00 0.00 75 1014.2
20260509033031 19 160 3.2 9.7 0.00 0.00 0.00 73 1014.0
20260509031533 20 164 3.2 8.0 0.00 0.00 0.00 71 1014.0
20260509030033 20 195 8.0 11.3 0.00 0.00 0.00 69 1013.6
20260509024529 21 171 1.6 9.7 0.00 0.00 0.00 67 1013.5
20260509023031 21 153 0.0 8.0 0.00 0.00 0.00 65 1013.3
20260509021528 22 238 4.8 9.7 0.00 0.00 0.00 64 1013.2
20260509020027 22 203 1.6 11.3 0.00 0.00 0.00 63 1013.1
20260509014528 23 202 4.8 11.3 0.00 0.00 0.00 62 1013.0
20260509013037 23 235 6.4 11.3 0.00 0.00 0.00 60 1013.1
20260509011525 24 218 4.8 14.5 0.00 0.00 0.00 58 1013.0
20260509010024 25 262 4.8 12.9 0.00 0.00 0.00 57 1013.0
20260509004525 25 245 8.0 14.5 0.00 0.00 0.00 55 1013.0
20260509003022 25 215 4.8 19.3 0.00 0.00 0.00 55 1013.1
20260509001521 26 246 6.4 14.5 0.00 0.00 0.00 54 1013.1
20260509000020 26 218 6.4 17.7 0.00 0.00 0.00 52 1013.1
20260508234519 26 224 8.0 16.1 0.00 0.00 0.00 52 1013.2
20260508233017 27 197 6.4 14.5 0.00 0.00 0.00 51 1013.1
20260508231516 27 196 8.0 16.1 0.00 0.00 0.00 51 1013.1
20260508230034 27 184 4.8 16.1 0.00 0.00 0.00 50 1013.3
20260508224539 27 237 4.8 14.5 0.00 0.00 0.00 50 1013.3
20260508223024 28 193 12.9 20.9 0.00 0.00 0.00 50 1013.2
20260508221512 28 174 12.9 24.1 0.00 0.00 0.00 49 1013.3
20260508220012 28 189 12.9 30.6 0.00 0.00 0.00 48 1013.4
20260508214511 30 149 8.0 25.7 0.00 0.00 0.00 47 1013.4
20260508213010 29 173 8.0 16.1 0.00 0.00 0.00 46 1013.4
20260508211512 30 162 9.7 19.3 0.00 0.00 0.00 45 1013.4
20260508210008 30 149 9.7 16.1 0.00 0.00 0.00 44 1013.5
20260508204513 28 90 3.2 16.1 0.00 0.00 0.00 44 1013.6
20260508203001 29 232 1.6 14.5 0.00 0.00 0.00 45 1013.9
20260508201559 27 110 4.8 14.5 0.00 0.00 0.00 47 1014.0
20260508200057 27 110 6.4 12.9 0.00 0.00 0.00 49 1014.1
20260508194553 27 299 1.6 11.3 0.00 0.00 0.00 49 1014.3
20260508193120 25 139 6.4 12.9 0.00 0.00 0.00 53 1014.4
20260508191549 25 135 4.8 12.9 0.00 0.00 0.00 54 1014.7
20260508190043 25 232 3.2 12.9 0.00 0.00 0.00 56 1014.9
20260508184548 25 162 4.8 17.7 0.00 0.00 0.00 57 1015.0
20260508183039 23 159 0.0 9.7 0.00 0.00 0.00 63 1015.2
20260508181532 22 76 6.4 11.3 0.00 0.00 0.00 64 1015.3
20260508180031 22 165 4.8 11.3 0.00 0.00 0.00 68 1015.4
20260508174535 21 242 3.2 8.0 0.00 0.00 0.00 70 1015.6
20260508173023 20 122 6.4 11.3 0.00 0.00 0.00 71 1015.7
20260508171521 20 218 1.6 9.7 0.00 0.00 0.00 75 1015.6
20260508170020 19 248 4.8 11.3 0.00 0.00 0.00 75 1015.7
20260508164523 18 207 1.6 8.0 0.00 0.00 0.00 81 1015.9
20260508163011 17 28 0.0 6.4 0.00 0.00 0.00 84 1016.0
20260508161507 16 37 3.2 8.0 0.00 0.00 0.00 87 1016.1
20260508160004 16 61 3.2 8.0 0.00 0.00 0.00 87 1016.2
20260508154604 16 358 3.2 9.7 0.00 0.00 0.00 88 1016.3
20260508153059 16 359 0.0 3.2 0.00 0.00 0.00 88 1016.3
20260508151557 16 232 0.0 3.2 0.00 0.00 0.00 88 1016.3
20260508150052 15 231 0.0 8.0 0.00 0.00 0.00 88 1016.3
20260508144549 15 258 0.0 3.2 0.00 0.00 0.00 88 1016.3
20260508143045 15 251 0.0 6.4 0.00 0.00 0.00 88 1016.1
20260508141544 15 218 0.0 3.2 0.00 0.00 0.00 89 1015.9
20260508140044 15 290 0.0 0.0 0.00 0.00 0.00 89 1015.9
20260508134541 15 61 0.0 6.4 0.00 0.00 0.00 89 1015.7
20260508133059 15 109 0.0 3.2 0.00 0.00 0.00 89 1015.6
20260508131538 15 203 0.0 0.0 0.00 0.00 0.00 88 1015.6
20260508130037 15 95 0.0 6.4 0.00 0.00 0.00 88 1015.6
20260508124537 15 134 0.0 3.2 0.00 0.00 0.00 88 1015.4
20260508123039 15 134 0.0 0.0 0.00 0.00 0.00 88 1015.4
20260508121536 15 134 0.0 0.0 0.00 0.00 0.00 88 1015.4
20260508120034 15 111 0.0 3.2 0.00 0.00 0.00 88 1015.4
20260508114533 15 91 0.0 4.8 0.00 0.00 0.00 88 1015.4
20260508113036 15 157 3.2 8.0 0.00 0.00 0.00 88 1015.4
20260508111531 15 117 1.6 9.7 0.00 0.00 0.00 87 1015.4
20260508110032 15 95 1.6 8.0 0.00 0.00 0.00 87 1015.4
20260508104528 15 111 1.6 8.0 0.00 0.00 0.00 87 1015.5
20260508103028 15 119 1.6 6.4 0.00 0.00 0.00 87 1015.7
20260508101527 15 139 1.6 8.0 0.00 0.00 0.00 87 1015.7
20260508100028 15 163 3.2 8.0 0.00 0.00 0.00 87 1015.6
20260508094526 15 111 1.6 9.7 0.00 0.00 0.00 87 1015.6
20260508093026 15 132 1.6 6.4 0.00 0.00 0.00 87 1015.5
20260508091535 15 122 1.6 8.0 0.00 0.00 0.00 86 1015.5
20260508090022 15 139 0.0 4.8 0.00 0.00 0.00 86 1015.6
20260508084521 15 109 0.0 6.4 0.00 0.00 0.00 86 1015.7
20260508083029 16 101 1.6 6.4 0.00 0.00 0.00 86 1015.8
20260508081518 16 115 4.8 8.0 0.00 0.00 0.00 86 1016.1
20260508080016 16 105 4.8 8.0 0.00 0.00 0.00 86 1016.3
20260508074515 16 91 3.2 8.0 0.00 0.00 0.00 86 1016.3
20260508073016 16 45 0.0 6.4 0.00 0.00 0.00 86 1016.3
20260508071515 16 51 0.0 6.4 0.00 0.00 0.00 85 1016.4
20260508070014 16 95 0.0 0.0 0.00 0.00 0.00 85 1016.6
20260508064516 16 258 0.0 6.4 0.00 0.00 0.00 85 1016.6
20260508063009 16 126 3.2 8.0 0.00 0.00 0.00 85 1016.7
20260508061509 16 139 4.8 9.7 0.00 0.00 0.00 85 1016.7
20260508060110 16 97 3.2 8.0 0.00 0.00 0.00 85 1016.6
20260508054508 16 159 3.2 11.3 0.00 0.00 0.00 84 1016.6
20260508053007 16 166 3.2 9.7 0.00 0.00 0.00 84 1016.7